This is the latest recevied weather packets stored in our database for station/object KC9MWQ-13. If no packets are shown the sender has not sent any weather packets the latest 10 day(s).
| Time | Temp. | Humidity | Pressure | Rain* | Wind** | Luminosity | Snow |
|---|---|---|---|---|---|---|---|
| 1777920228 | 24.44° C | 56% | 1005.1 hPa | 0 mm | - | 820 W/m² | - |
| 1777919924 | 24.44° C | 56% | 1005 hPa | 0 mm | - | 272 W/m² | - |
| 1777919622 | 23.89° C | 57% | 1005 hPa | 0 mm | - | 762 W/m² | - |
| 1777919319 | 23.89° C | 56% | 1004.9 hPa | 0 mm | - | 642 W/m² | - |
| 1777919017 | 23.89° C | 57% | 1005 hPa | 0 mm | - | 606 W/m² | - |
| 1777918713 | 23.89° C | 58% | 1004.9 hPa | 0 mm | - | 691 W/m² | - |
| 1777918411 | 23.89° C | 61% | 1004.8 hPa | 0 mm | - | 721 W/m² | - |
| 1777918110 | 23.89° C | 58% | 1005.1 hPa | 0 mm | - | 720 W/m² | - |
| 1777917808 | 23.89° C | 58% | 1005.2 hPa | 0 mm | - | 729 W/m² | - |
| 1777917506 | 23.89° C | 59% | 1005.1 hPa | 0 mm | - | 734 W/m² | - |
| 1777917202 | 23.89° C | 60% | 1005.1 hPa | 0 mm | - | 738 W/m² | - |
| 1777916901 | 23.89° C | 60% | 1004.8 hPa | 0 mm | - | 714 W/m² | - |
| 1777916598 | 23.89° C | 60% | 1005.1 hPa | 0 mm | - | 752 W/m² | - |
| 1777916294 | 23.33° C | 61% | 1005 hPa | 0 mm | - | 727 W/m² | - |
| 1777915991 | 23.33° C | 62% | 1005 hPa | 0 mm | - | 722 W/m² | - |
| 1777915688 | 23.33° C | 62% | 1005.2 hPa | 0 mm | - | 740 W/m² | - |
| 1777915385 | 23.33° C | 63% | 1005.1 hPa | 0 mm | - | 763 W/m² | - |
| 1777915080 | 23.33° C | 62% | 1005.4 hPa | 0 mm | - | 744 W/m² | - |
| 1777914778 | 22.78° C | 68% | 1005.2 hPa | 0 mm | - | 710 W/m² | - |
| 1777914475 | 22.78° C | 62% | 1005.4 hPa | 0 mm | - | 684 W/m² | - |
| 1777914172 | 22.78° C | 64% | 1005.6 hPa | 0 mm | - | 729 W/m² | - |
| 1777913868 | 22.78° C | 63% | 1005.5 hPa | 0 mm | - | 760 W/m² | - |
| 1777913565 | 22.22° C | 65% | 1005.8 hPa | 0 mm | - | 744 W/m² | - |
| 1777913261 | 22.78° C | 63% | 1005.7 hPa | 0 mm | - | 734 W/m² | - |
| 1777912958 | 22.22° C | 64% | 1005.8 hPa | 0 mm | - | 745 W/m² | - |
* Rain latest hour (hover to see other rain measurements)
** Current wind speed in m/s (hover to see current wind gust speed)